Вернуться в каталог

FENGYUN 1C DEB

АктивенPO
NORAD 29933·DEBRIS·🇨🇳 China

Запущен May 10, 1999 с Taiyuan Satellite Launch Center

Loading…

Ближайшие Пролёты (ближайшие 24 часа)

TLE

СвежийSource: Space-Track

Эпоха: Sep 14, 2026, 14:41 UTC

1 29933U 99025JF  26257.61209199  .00013014  00000-0  19295-2 0  9997
2 29933  98.7557  26.1474 0006266 192.2369 296.5978 14.75221741 25608

Отслеживайте FENGYUN 1C DEB в реальном времени с AllMySat

Download on the App Store